Location: Oshawa
(43.9000°N, 78.8670°W)
Time: 23:34:03
(UTC-04:00)

Courier 1B - All Passes

Search period start: 25 May 2015 00:00
Search period end: 04 June 2015 00:00
Orbit: 963 x 1209 km, 28.3° (Epoch: 25 May)

Date Brightness Start Highest point End Pass type
(mag) Time Alt. Az. Time Alt. Az. Time Alt. Az.
25 May - 00:00:25 10° SW 00:06:10 23° S 00:11:41 10° SE visible
25 May - 01:55:48 10° SW 01:59:13 13° SSW 02:02:23 10° S night (unlit)
25 May - 19:24:11 10° S 19:26:08 11° SSE 19:28:21 10° SE daylight
25 May - 21:13:41 10° SW 21:19:16 21° S 21:24:50 10° ESE visible
25 May - 23:06:33 10° SW 23:12:32 24° S 23:18:20 10° SE visible
26 May - 01:01:08 10° SW 01:05:41 17° SSW 01:09:59 10° SSE visible
26 May - 20:20:29 10° SSW 20:25:37 19° SSE 20:30:51 10° ESE daylight
26 May - 22:12:49 10° SW 22:18:52 25° S 22:24:50 10° SE visible
27 May - 00:06:51 10° WSW 00:12:06 20° SSW 00:17:08 10° SSE visible
27 May - 19:27:33 10° SSW 19:32:00 16° SSE 19:36:37 10° SE daylight
27 May - 21:19:13 10° SW 21:25:13 24° S 21:31:11 10° SE visible
27 May - 23:12:47 10° WSW 23:18:29 22° S 23:24:01 10° SE visible
28 May - 01:09:00 10° SW 01:11:33 12° SSW 01:13:49 10° S visible
28 May - 18:35:06 10° S 18:38:24 13° SSE 18:41:57 10° SE daylight
28 May - 20:25:45 10° SW 20:31:33 23° S 20:37:24 10° ESE daylight
28 May - 22:18:52 10° SW 22:24:50 24° S 22:30:42 10° SE visible
29 May - 00:13:51 10° SW 00:18:00 15° SSW 00:21:52 10° S visible
29 May - 17:44:23 10° SSE 17:44:51 10° SSE 17:45:36 10° SSE daylight
29 May - 19:32:28 10° SSW 19:37:54 21° SSE 19:43:27 10° ESE daylight
29 May - 21:25:06 10° SW 21:31:10 25° S 21:37:12 10° SE visible
29 May - 23:19:25 10° WSW 23:24:24 18° SSW 23:29:12 10° SSE visible
30 May - 18:39:26 10° SSW 18:44:17 18° SSE 18:49:20 10° ESE daylight
30 May - 20:31:29 10° SW 20:37:30 25° S 20:43:34 10° SE daylight
30 May - 22:25:16 10° WSW 22:30:46 21° SSW 22:36:10 10° SSE visible
31 May - 17:46:43 10° SSW 17:50:41 15° SSE 17:54:54 10° SE daylight
31 May - 19:38:00 10° SW 19:43:50 24° S 19:49:48 10° SE daylight
31 May - 21:31:20 10° WSW 21:37:07 23° S 21:42:53 10° SE visible
31 May - 23:26:56 10° SW 23:30:16 13° SSW 23:33:21 10° S visible
01 Jun - 16:54:40 10° S 16:57:09 12° SSE 16:59:54 10° SE daylight
01 Jun - 18:44:42 10° SW 18:50:12 22° S 18:55:54 10° ESE daylight
01 Jun - 20:37:34 10° SW 20:43:28 24° S 20:49:25 10° SE daylight
01 Jun - 22:32:12 10° SW 22:36:40 16° SSW 22:40:58 10° SSE visible
02 Jun - 17:51:34 10° SSW 17:56:35 20° SSE 18:01:50 10° ESE daylight
02 Jun - 19:43:55 10° SW 19:49:48 24° S 19:55:48 10° SE daylight
02 Jun - 21:37:56 10° WSW 21:43:03 19° SSW 21:48:04 10° SSE visible
03 Jun - 16:58:43 10° SSW 17:03:01 17° SSE 17:07:35 10° SE daylight
03 Jun - 18:50:26 10° SW 18:56:09 24° S 19:02:04 10° SE daylight
03 Jun - 20:43:58 10° WSW 20:49:24 21° SSW 20:54:52 10° SSE daylight
03 Jun - 22:41:00 10° SW 22:42:32 11° SSW 22:43:47 10° SSW visible
